Simultaneous Nadir Overpasses (SNOs) Predictions

Prediction of SNOs between GOES-16 and NOAA-19 Satellite Orbit:

Table of predicted SNOs for the next 14.0 days since TLE Epoch: 8/31/2018
Index Date Time (GOES-16) GOES-16 Lat,Lon NOAA-19 Lat,Lon Distance(km) Time Diff (sec)
1 08/31/2018 21:00:45 0.03, -75.21 0.86, -71.55 417.28 80
2 09/02/2018 09:33:27 -0.03, -75.23 0.93, -79.39 474.94 80
3 09/03/2018 09:21:52 -0.03, -75.23 0.29, -76.56 151.83 80
4 09/04/2018 09:07:38 -0.03, -75.24 -0.36, -73.74 171.33 80
5 09/05/2018 08:56:04 -0.04, -75.25 -1.06, -70.93 494.50 80
6 09/06/2018 21:31:45 0.04, -75.26 -0.79, -78.83 406.92 80
7 09/07/2018 21:20:10 0.04, -75.28 -0.14, -76.00 83.35 80
8 09/08/2018 21:05:56 0.05, -75.29 0.51, -73.18 240.51 80
9 09/11/2018 09:29:44 -0.05, -75.34 0.60, -78.20 325.47 80
10 09/12/2018 09:18:09 -0.05, -75.37 -0.05, -75.37 1.10 80
11 09/13/2018 09:03:55 -0.05, -75.39 -0.70, -72.55 323.75 80




NCC Satellite Simultaneous Nadir Overpasses (SNOs) Prediction Service
